TAP1023 LEMD-LPPT

Flight info

Callsign TAP1023
Flight time N/A
Altitude 33000
Route CCS DCT ELVAR DCT UPULO
Aircraft A321/M-SDE3FGHIRWY/LB1

Departure

Time 2026-05-07 12:28
Airport Adolfo Suárez Madrid–Barajas Airport (LEMD)

Arrival

Time N/A
Airport Lisbon Humberto Delgado Airport (LPPT)
Time Latitude Longitude Altitude Speed Heading
2026-05-07 11:40 40.46165 -3.57065 1948 ft 0 kts
2026-05-07 12:14 40.46150 -3.57066 1948 ft 4 kts
2026-05-07 12:14 40.46123 -3.57068 1947 ft 4 kts
2026-05-07 12:15 40.46102 -3.57070 1947 ft 3 kts
2026-05-07 12:15 40.46076 -3.57073 1947 ft 4 kts 11°
2026-05-07 12:15 40.46050 -3.57082 1946 ft 3 kts 18°
2026-05-07 12:15 40.46028 -3.57090 1946 ft 4 kts
2026-05-07 12:16 40.46004 -3.57083 1946 ft 4 kts 322°
2026-05-07 12:16 40.45986 -3.57060 1945 ft 2 kts 314°
2026-05-07 12:16 40.45971 -3.57040 1945 ft 1 kts 314°
2026-05-07 12:16 40.45971 -3.57039 1945 ft 0 kts 314°
2026-05-07 12:19 40.45972 -3.57042 1945 ft 3 kts 314°
2026-05-07 12:19 40.46005 -3.57086 1946 ft 7 kts 314°
2026-05-07 12:19 40.46037 -3.57114 1946 ft 4 kts 339°
2026-05-07 12:19 40.46060 -3.57112 1946 ft 8 kts 19°
2026-05-07 12:20 40.46098 -3.57006 1947 ft 14 kts 69°
2026-05-07 12:20 40.46155 -3.56912 1947 ft 13 kts 49°
2026-05-07 12:20 40.46229 -3.56832 1948 ft 15 kts 32°
2026-05-07 12:20 40.46306 -3.56725 1949 ft 18 kts 46°
2026-05-07 12:21 40.46425 -3.56679 1950 ft 19 kts
2026-05-07 12:21 40.46565 -3.56666 1953 ft 21 kts
2026-05-07 12:21 40.46720 -3.56655 1955 ft 23 kts
2026-05-07 12:21 40.46883 -3.56647 1958 ft 25 kts 353°
2026-05-07 12:22 40.47035 -3.56752 1962 ft 25 kts 322°
2026-05-07 12:22 40.47172 -3.56906 1967 ft 26 kts 330°
2026-05-07 12:22 40.47348 -3.56956 1969 ft 26 kts 325°
2026-05-07 12:22 40.47473 -3.57135 1973 ft 28 kts 304°
2026-05-07 12:23 40.47617 -3.57307 1974 ft 29 kts 321°
2026-05-07 12:23 40.47764 -3.57455 1980 ft 19 kts 324°
2026-05-07 12:23 40.47878 -3.57440 1978 ft 19 kts 43°
2026-05-07 12:23 40.47983 -3.57478 1982 ft 18 kts 320°
2026-05-07 12:24 40.48086 -3.57581 1984 ft 19 kts 322°
2026-05-07 12:24 40.48195 -3.57696 1984 ft 21 kts 322°
2026-05-07 12:24 40.48317 -3.57817 1986 ft 23 kts 323°
2026-05-07 12:24 40.48459 -3.57944 1987 ft 27 kts 328°
2026-05-07 12:25 40.48648 -3.58061 1972 ft 34 kts 353°
2026-05-07 12:25 40.48914 -3.58051 1950 ft 43 kts 358°
2026-05-07 12:25 40.49111 -3.58060 1939 ft 17 kts
2026-05-07 12:25 40.49208 -3.58057 1936 ft 10 kts 17°
2026-05-07 12:26 40.49245 -3.57993 1934 ft 10 kts 84°
2026-05-07 12:26 40.49250 -3.57899 1931 ft 11 kts 88°
2026-05-07 12:26 40.49250 -3.57746 1926 ft 24 kts 95°
2026-05-07 12:26 40.49308 -3.57523 1925 ft 26 kts 43°
2026-05-07 12:27 40.49468 -3.57463 1927 ft 23 kts 358°
2026-05-07 12:27 40.49669 -3.57471 1930 ft 51 kts 358°
2026-05-07 12:27 40.50239 -3.57469 1938 ft 110 kts 359°
2026-05-07 12:27 40.51166 -3.57472 1955 ft 154 kts
2026-05-07 12:28 40.52347 -3.57495 2133 ft 178 kts 356°
2026-05-07 12:28 40.53584 -3.57576 2590 ft 182 kts 360°
2026-05-07 12:28 40.54852 -3.57599 3094 ft 183 kts 358°
2026-05-07 12:28 40.56077 -3.58173 3260 ft 199 kts 320°
2026-05-07 12:29 40.56876 -3.59730 3350 ft 218 kts 284°
2026-05-07 12:29 40.57391 -3.61675 3533 ft 230 kts 305°
2026-05-07 12:29 40.58568 -3.63061 4025 ft 229 kts 326°
2026-05-07 12:29 40.59906 -3.64214 4495 ft 231 kts 327°
2026-05-07 12:30 40.61255 -3.65393 4937 ft 234 kts 326°
2026-05-07 12:30 40.62582 -3.66658 5354 ft 237 kts 316°
2026-05-07 12:30 40.63581 -3.68344 5732 ft 239 kts 293°
2026-05-07 12:30 40.64023 -3.70487 5890 ft 250 kts 269°
2026-05-07 12:31 40.63996 -3.72847 6019 ft 266 kts 265°
2026-05-07 12:31 40.63947 -3.75353 6209 ft 279 kts 265°
2026-05-07 12:31 40.63899 -3.77922 6596 ft 283 kts 266°
2026-05-07 12:31 40.63854 -3.80518 7035 ft 285 kts 266°
2026-05-07 12:32 40.63810 -3.83128 7453 ft 286 kts 266°
2026-05-07 12:32 40.63766 -3.85720 7858 ft 288 kts 266°
2026-05-07 12:32 40.63722 -3.88361 8254 ft 290 kts 266°
2026-05-07 12:32 40.63675 -3.91023 8671 ft 290 kts 266°
2026-05-07 12:33 40.63582 -3.96361 9386 ft 293 kts 266°
2026-05-07 12:33 40.63537 -3.99039 9720 ft 293 kts 266°
2026-05-07 12:33 40.63495 -4.01724 10051 ft 295 kts 266°
2026-05-07 12:34 40.63451 -4.04458 10176 ft 303 kts 266°
2026-05-07 12:34 40.63403 -4.07221 10300 ft 310 kts 266°
2026-05-07 12:34 40.63348 -4.10056 10430 ft 310 kts 266°
2026-05-07 12:34 40.63292 -4.12912 10548 ft 315 kts 266°
2026-05-07 12:35 40.63240 -4.15809 10673 ft 318 kts 266°
2026-05-07 12:35 40.63200 -4.18734 10790 ft 320 kts 266°
2026-05-07 12:35 40.63156 -4.21680 10911 ft 324 kts 266°
2026-05-07 12:35 40.63094 -4.24645 11086 ft 324 kts 266°
2026-05-07 12:36 40.63032 -4.27613 11275 ft 324 kts 266°
2026-05-07 12:36 40.62968 -4.30578 11434 ft 324 kts 266°
2026-05-07 12:36 40.62909 -4.33509 11592 ft 325 kts 266°
2026-05-07 12:36 40.62851 -4.36498 11783 ft 327 kts 267°
2026-05-07 12:37 40.62788 -4.39495 12011 ft 328 kts 266°
2026-05-07 12:37 40.62718 -4.42475 12213 ft 326 kts 266°
2026-05-07 12:37 40.62654 -4.45448 12362 ft 325 kts 266°
2026-05-07 12:37 40.62597 -4.48434 12516 ft 327 kts 266°
2026-05-07 12:38 40.62420 -4.51415 12690 ft 326 kts 259°
2026-05-07 12:38 40.61891 -4.54315 12861 ft 326 kts 250°
2026-05-07 12:38 40.61023 -4.57060 13022 ft 325 kts 241°
2026-05-07 12:38 40.59861 -4.59558 13184 ft 325 kts 233°
2026-05-07 12:39 40.58502 -4.61939 13356 ft 327 kts 232°
2026-05-07 12:39 40.57138 -4.64336 13562 ft 327 kts 232°
2026-05-07 12:39 40.55778 -4.66735 13742 ft 327 kts 232°
2026-05-07 12:39 40.54422 -4.69137 13888 ft 328 kts 232°
2026-05-07 12:40 40.53060 -4.71543 14028 ft 329 kts 232°
2026-05-07 12:40 40.51691 -4.73951 14170 ft 329 kts 232°
2026-05-07 12:40 40.50319 -4.76361 14303 ft 330 kts 232°
2026-05-07 12:40 40.48940 -4.78775 14434 ft 331 kts 232°
2026-05-07 12:41 40.47572 -4.81160 14566 ft 332 kts 232°
2026-05-07 12:41 40.46183 -4.83585 14723 ft 332 kts 232°
2026-05-07 12:41 40.44793 -4.86017 14865 ft 333 kts 232°
2026-05-07 12:41 40.43401 -4.88451 15002 ft 334 kts 232°
2026-05-07 12:42 40.42005 -4.90890 15131 ft 335 kts 232°
2026-05-07 12:42 40.40607 -4.93333 15272 ft 335 kts 232°
2026-05-07 12:42 40.39205 -4.95783 15396 ft 336 kts 232°
2026-05-07 12:42 40.37803 -4.98235 15525 ft 337 kts 232°
2026-05-07 12:43 40.36399 -5.00683 15652 ft 336 kts 232°
2026-05-07 12:43 40.34996 -5.03125 15777 ft 336 kts 232°
2026-05-07 12:43 40.33606 -5.05542 15885 ft 336 kts 231°
2026-05-07 12:43 40.32202 -5.07986 16008 ft 335 kts 231°
2026-05-07 12:44 40.30795 -5.10414 16127 ft 335 kts 232°
2026-05-07 12:44 40.29389 -5.12843 16250 ft 335 kts 232°
2026-05-07 12:44 40.27981 -5.15280 16377 ft 336 kts 232°
2026-05-07 12:44 40.26577 -5.17719 16492 ft 336 kts 232°
2026-05-07 12:45 40.25172 -5.20158 16620 ft 335 kts 231°
2026-05-07 12:45 40.23763 -5.22587 16737 ft 336 kts 232°
2026-05-07 12:45 40.22342 -5.25032 16852 ft 338 kts 232°
2026-05-07 12:45 40.20938 -5.27453 16979 ft 338 kts 232°
2026-05-07 12:46 40.19515 -5.29907 17111 ft 339 kts 232°
2026-05-07 12:46 40.18091 -5.32368 17229 ft 340 kts 232°
2026-05-07 12:46 40.16664 -5.34831 17358 ft 340 kts 232°
2026-05-07 12:46 40.15235 -5.37295 17482 ft 340 kts 232°
2026-05-07 12:47 40.13800 -5.39759 17607 ft 341 kts 232°
2026-05-07 12:47 40.12363 -5.42222 17734 ft 341 kts 232°
2026-05-07 12:47 40.10926 -5.44687 17856 ft 341 kts 232°
2026-05-07 12:47 40.09492 -5.47155 17989 ft 341 kts 232°
2026-05-07 12:48 40.08075 -5.49586 18113 ft 342 kts 232°
2026-05-07 12:48 40.06638 -5.52052 18229 ft 341 kts 232°
2026-05-07 12:48 40.05198 -5.54508 18333 ft 341 kts 231°
2026-05-07 12:48 40.03763 -5.56953 18615 ft 336 kts 232°
2026-05-07 12:49 40.02368 -5.59334 19110 ft 325 kts 232°
2026-05-07 12:49 40.01020 -5.61636 19602 ft 315 kts 232°
2026-05-07 12:49 39.99713 -5.63872 20094 ft 305 kts 232°
2026-05-07 12:49 39.98447 -5.66036 20594 ft 296 kts 232°
2026-05-07 12:50 39.97216 -5.68135 21089 ft 286 kts 232°
2026-05-07 12:50 39.96023 -5.70165 21351 ft 287 kts 232°
2026-05-07 12:50 39.94804 -5.72236 21547 ft 289 kts 232°
2026-05-07 12:50 39.93580 -5.74315 21764 ft 290 kts 232°
2026-05-07 12:51 39.92350 -5.76402 21974 ft 291 kts 232°
2026-05-07 12:51 39.91115 -5.78499 22160 ft 292 kts 232°
2026-05-07 12:51 39.89874 -5.80605 22355 ft 293 kts 232°
2026-05-07 12:51 39.88629 -5.82714 22536 ft 294 kts 231°
2026-05-07 12:52 39.87380 -5.84830 22724 ft 295 kts 232°
2026-05-07 12:52 39.86145 -5.86925 22895 ft 296 kts 232°
2026-05-07 12:52 39.84888 -5.89051 23071 ft 297 kts 232°
2026-05-07 12:52 39.83628 -5.91184 23238 ft 298 kts 232°
2026-05-07 12:53 39.82365 -5.93324 23414 ft 298 kts 232°
2026-05-07 12:53 39.81096 -5.95466 23568 ft 299 kts 231°
2026-05-07 12:53 39.79824 -5.97612 23741 ft 300 kts 231°
2026-05-07 12:53 39.78549 -5.99762 23894 ft 301 kts 232°
2026-05-07 12:54 39.77270 -6.01921 24052 ft 302 kts 232°
2026-05-07 12:54 39.75989 -6.04083 24201 ft 302 kts 232°
2026-05-07 12:54 39.74724 -6.06217 24338 ft 303 kts 232°
2026-05-07 12:54 39.73437 -6.08386 24473 ft 304 kts 232°
2026-05-07 12:55 39.72145 -6.10557 24615 ft 304 kts 232°
2026-05-07 12:55 39.70847 -6.12730 24765 ft 305 kts 232°
2026-05-07 12:55 39.69548 -6.14901 24894 ft 305 kts 232°
2026-05-07 12:55 39.68247 -6.17079 25022 ft 305 kts 233°
2026-05-07 12:56 39.66948 -6.19258 25153 ft 306 kts 233°
2026-05-07 12:56 39.65645 -6.21442 25286 ft 306 kts 233°
2026-05-07 12:56 39.64356 -6.23603 25407 ft 307 kts 233°
2026-05-07 12:56 39.63049 -6.25794 25536 ft 307 kts 233°
2026-05-07 12:57 39.61740 -6.27986 25659 ft 308 kts 233°
2026-05-07 12:57 39.60423 -6.30180 25773 ft 308 kts 233°
2026-05-07 12:57 39.59103 -6.32376 25886 ft 309 kts 234°
2026-05-07 12:57 39.57784 -6.34572 26001 ft 309 kts 234°
2026-05-07 12:58 39.56464 -6.36770 26117 ft 309 kts 234°
2026-05-07 12:58 39.55144 -6.38968 26215 ft 309 kts 234°
2026-05-07 12:58 39.53839 -6.41140 26307 ft 310 kts 235°
2026-05-07 12:58 39.52522 -6.43351 26399 ft 309 kts 238°
2026-05-07 12:59 39.51384 -6.45705 26491 ft 308 kts 244°
2026-05-07 12:59 39.50408 -6.48167 26586 ft 307 kts 247°
2026-05-07 12:59 39.49503 -6.50670 26665 ft 307 kts 248°
2026-05-07 12:59 39.48614 -6.53183 26761 ft 307 kts 248°
2026-05-07 13:00 39.47712 -6.55691 26844 ft 307 kts 248°
2026-05-07 13:00 39.46789 -6.58193 26924 ft 308 kts 247°
2026-05-07 13:00 39.45853 -6.60679 27016 ft 308 kts 247°
2026-05-07 13:00 39.44919 -6.63127 27094 ft 307 kts 246°
2026-05-07 13:01 39.43964 -6.65605 27166 ft 308 kts 247°
2026-05-07 13:01 39.43006 -6.68082 27242 ft 308 kts 247°
2026-05-07 13:01 39.42048 -6.70556 27319 ft 308 kts 248°
2026-05-07 13:01 39.41092 -6.73032 27390 ft 308 kts 248°
2026-05-07 13:02 39.40138 -6.75514 27469 ft 308 kts 248°
2026-05-07 13:02 39.39187 -6.77983 27535 ft 307 kts 248°
2026-05-07 13:02 39.38234 -6.80458 27585 ft 308 kts 248°
2026-05-07 13:02 39.37278 -6.82929 27640 ft 307 kts 248°
2026-05-07 13:03 39.36335 -6.85363 27696 ft 307 kts 248°
2026-05-07 13:03 39.35382 -6.87829 27747 ft 307 kts 249°
2026-05-07 13:03 39.34428 -6.90295 27803 ft 307 kts 249°
2026-05-07 13:03 39.33472 -6.92764 27866 ft 307 kts 249°
2026-05-07 13:04 39.32517 -6.95229 27927 ft 307 kts 249°
2026-05-07 13:04 39.31556 -6.97700 27650 ft 312 kts 249°
2026-05-07 13:04 39.30569 -7.00245 26448 ft 323 kts 248°
2026-05-07 13:04 39.29541 -7.02892 25115 ft 336 kts 248°
2026-05-07 13:05 39.28473 -7.05634 23729 ft 347 kts 246°
2026-05-07 13:05 39.27382 -7.08422 22315 ft 358 kts 245°
2026-05-07 13:05 39.26254 -7.11303 21097 ft 360 kts 245°
2026-05-07 13:05 39.25131 -7.14172 20044 ft 357 kts 245°
2026-05-07 13:06 39.24022 -7.17008 19036 ft 351 kts 244°
2026-05-07 13:06 39.22929 -7.19807 18045 ft 347 kts 244°
2026-05-07 13:06 39.21850 -7.22565 17063 ft 342 kts 244°
2026-05-07 13:06 39.20768 -7.25278 16079 ft 338 kts 243°
2026-05-07 13:07 39.19685 -7.27941 15099 ft 334 kts 242°
2026-05-07 13:07 39.18605 -7.30574 14126 ft 330 kts 242°
2026-05-07 13:07 39.17551 -7.33136 13153 ft 326 kts 242°
2026-05-07 13:07 39.16497 -7.35707 12179 ft 323 kts 241°
2026-05-07 13:08 39.15456 -7.38244 11195 ft 319 kts 241°
2026-05-07 13:08 39.14424 -7.40763 10202 ft 316 kts 241°
2026-05-07 13:08 39.13408 -7.43238 9599 ft 303 kts 241°
2026-05-07 13:08 39.12455 -7.45560 9152 ft 286 kts 241°
2026-05-07 13:09 39.11534 -7.47803 8564 ft 283 kts 241°
2026-05-07 13:09 39.10606 -7.50061 8660 ft 286 kts 241°
2026-05-07 13:09 39.09687 -7.52295 9106 ft 286 kts 241°
2026-05-07 13:09 39.08753 -7.54569 9493 ft 288 kts 241°
2026-05-07 13:10 39.07815 -7.56851 9866 ft 289 kts 241°
2026-05-07 13:10 39.06868 -7.59147 10136 ft 294 kts 241°
2026-05-07 13:10 39.05895 -7.61503 10263 ft 302 kts 241°
2026-05-07 13:10 39.04896 -7.63922 10392 ft 310 kts 241°
2026-05-07 13:11 39.03883 -7.66396 10535 ft 315 kts 242°
2026-05-07 13:11 39.02893 -7.68936 10670 ft 320 kts 243°